North Vernon, Indiana, United States (47265)
Lat: 39.01N, Lon: 85.62W
Wx Zone: INZ072
Local Info
Past Weather Observations for Sunday, July 26, 2015

NOTE: This archive is for the closest National Weather Service station to North Vernon. Information may differ from the station used for current weather conditions.

Click here for Long-term Archive

Time Weather Temperature Dewpoint Humidity Pressure Winds Precip Visibility
23:53
Overcast
Fog And Mist
72°F / 22°C 70°F / 21°C 94% 29.98 in
(1015 mb)
SE 3.5 mph
(SE 6 kph)
0.23 in
(5.84 mm)
6SM
23:09
Overcast
Rain
72°F / 22°C 70°F / 21°C 94% 29.98 in
(1015 mb)
ENE 5.8 mph
(ENE 9 kph)
0.23 in
(5.84 mm)
3SM
22:55
Overcast
Heavy Rain
72°F / 22°C 70°F / 21°C 94% 29.98 in
(1015 mb)
NNE 4.6 mph
(NNE 7 kph)
0.09 in
(2.29 mm)
1 3/4SM
22:53
Overcast
Light Rain
72°F / 22°C 70°F / 21°C 94% 29.98 in
(1015 mb)
NNW 4.6 mph
(NNW 7 kph)
0.21 in
(5.33 mm)
3SM
22:27
Overcast
Light Rain
72°F / 22°C 70°F / 21°C 94% 29.98 in
(1015 mb)
E 8.1 mph
(E 13 kph)
0.14 in
(3.56 mm)
5SM
22:12
Overcast
Heavy Rain
72°F / 22°C 70°F / 21°C 94% 29.98 in
(1015 mb)
SE 6.9 mph
(SE 11 kph)
0.10 in
(2.54 mm)
2 1/2SM
21:53
Overcast
Light Rain
72°F / 22°C 70°F / 21°C 94% 30.01 in
(1016 mb)
ENE 4.6 mph
(ENE 7 kph)
0.15 in
(3.81 mm)
6SM
21:10
Overcast
Rain
72°F / 22°C 70°F / 21°C 94% 30.01 in
(1016 mb)
Calm 0.05 in
(1.27 mm)
4SM
20:53
Overcast
Thunder Storms
72°F / 22°C 70°F / 21°C 94% 29.98 in
(1015 mb)
NNE 8.1 mph
(NNE 13 kph)
1.50 in
(38.10 mm)
5SM
20:46
Overcast
Thunder Storms
72°F / 22°C 70°F / 21°C 94% 29.98 in
(1015 mb)
NNE 5.8 mph
(NNE 9 kph)
1.48 in
(37.59 mm)
2SM
20:38
Overcast
Thunder Storms
72°F / 22°C 70°F / 21°C 94% 29.98 in
(1015 mb)
N 6.9 mph
(N 11 kph)
1.44 in
(36.58 mm)
3/4SM
20:17
Overcast
Thunder Storms
73°F / 23°C 70°F / 21°C 89% 29.98 in
(1015 mb)
NW 18.4 mph
(NW 30 kph)
0.53 in
(13.46 mm)
3/4SM
20:13
Overcast
Thunder Storms
75°F / 24°C 72°F / 22°C 89% 29.98 in
(1015 mb)
WNW 23 mph
(WNW 37 kph)
0.29 in
(7.37 mm)
1 1/4SM
20:07
Overcast
Thunder Storms
75°F / 24°C 72°F / 22°C 89% 29.95 in
(1014 mb)
NW 10.4 mph
(NW 17 kph)
0.14 in
(3.56 mm)
2 1/2SM
19:53
Overcast
75°F / 24°C 72°F / 22°C 89% 29.95 in
(1014 mb)
NNE 5.8 mph
(NNE 9 kph)
- 10SM
18:53
Partly Cloudy
79°F / 26°C 72°F / 22°C 79% 29.95 in
(1014 mb)
E 3.5 mph
(E 6 kph)
- 10SM
17:53
Mostly Cloudy
79°F / 26°C 70°F / 21°C 74% 29.92 in
(1013 mb)
SE 4.6 mph
(SE 7 kph)
- 10SM
16:53
Clear
81°F / 27°C 72°F / 22°C 74% 29.95 in
(1014 mb)
ESE 5.8 mph
(ESE 9 kph)
- 10SM
15:53
Clear
81°F / 27°C 73°F / 23°C 79% 29.95 in
(1014 mb)
SSE 3.5 mph
(SSE 6 kph)
- 10SM
14:53
Mostly Cloudy
79°F / 26°C 72°F / 22°C 79% 29.98 in
(1015 mb)
SE 5.8 mph
(SE 9 kph)
- 10SM
14:31
Mostly Cloudy
79°F / 26°C 70°F / 21°C 74% 29.98 in
(1015 mb)
ESE 10.4 mph
(ESE 17 kph)
- 10SM
14:11
Partly Cloudy
Thunder Storms
81°F / 27°C 70°F / 21°C 70% 29.98 in
(1015 mb)
E 6.9 mph
(E 11 kph)
- 10SM
13:53
Overcast
Thunder Storms
81°F / 27°C 72°F / 22°C 74% 29.98 in
(1015 mb)
ENE 6.9 mph
(ENE 11 kph)
0.00 in
(0.00 mm)
9SM
13:37
Overcast
Thunder Storms
82°F / 28°C 70°F / 21°C 66% 29.98 in
(1015 mb)
NE 10.4 mph
(NE 17 kph)
0.00 in
(0.00 mm)
10SM
12:55
Overcast
Thunder Storms
82°F / 28°C 75°F / 24°C 79% 29.98 in
(1015 mb)
SSW 9.2 mph
(SSW 15 kph)
0.00 in
(0.00 mm)
3SM
12:53
Overcast
Thunder Storms
82°F / 28°C 75°F / 24°C 79% 29.98 in
(1015 mb)
SSW 8.1 mph
(SSW 13 kph)
0.10 in
(2.54 mm)
1 3/4SM
12:50
Overcast
Thunder Storms
82°F / 28°C 75°F / 24°C 79% 29.98 in
(1015 mb)
SSW 8.1 mph
(SSW 13 kph)
0.09 in
(2.29 mm)
1SM
12:43
Overcast
Thunder Storms
84°F / 29°C 75°F / 24°C 74% 29.98 in
(1015 mb)
SSW 5.8 mph
(SSW 9 kph)
0.06 in
(1.52 mm)
2SM
12:21
Mostly Cloudy
82°F / 28°C 75°F / 24°C 79% 29.98 in
(1015 mb)
SSW 6.9 mph
(SSW 11 kph)
0.00 in
(0.00 mm)
9SM
11:53
Mostly Cloudy
Light Rain
82°F / 28°C 75°F / 24°C 79% 29.98 in
(1015 mb)
N 3.5 mph
(N 6 kph)
0.01 in
(0.25 mm)
4SM
11:29
Mostly Cloudy
84°F / 29°C 75°F / 24°C 74% 29.98 in
(1015 mb)
W 4.6 mph
(W 7 kph)
- 10SM
11:07
Overcast
84°F / 29°C 75°F / 24°C 74% 29.98 in
(1015 mb)
SSW 5.8 mph
(SSW 9 kph)
- 9SM
10:53
Mostly Cloudy
84°F / 29°C 75°F / 24°C 74% 29.98 in
(1015 mb)
SSW 5.8 mph
(SSW 9 kph)
- 9SM
10:27
Mostly Cloudy
82°F / 28°C 75°F / 24°C 79% 29.98 in
(1015 mb)
SSW 5.8 mph
(SSW 9 kph)
- 9SM
09:53
Partly Cloudy
82°F / 28°C 75°F / 24°C 79% 29.98 in
(1015 mb)
SW 5.8 mph
(SW 9 kph)
- 8SM
08:53
Partly Cloudy
Hazy
81°F / 27°C 73°F / 23°C 79% 29.98 in
(1015 mb)
SW 3.5 mph
(SW 6 kph)
- 6SM
07:53
Clear
Hazy
75°F / 24°C 72°F / 22°C 89% 29.98 in
(1015 mb)
S 4.6 mph
(S 7 kph)
- 4SM
06:53
Clear
Fog And Mist
73°F / 23°C 70°F / 21°C 89% 29.95 in
(1014 mb)
SSE 4.6 mph
(SSE 7 kph)
- 4SM
05:53
Clear
Fog And Mist
72°F / 22°C 68°F / 20°C 88% 29.95 in
(1014 mb)
Calm - 3SM
04:53
Partly Cloudy
Fog And Mist
73°F / 23°C 70°F / 21°C 89% 29.95 in
(1014 mb)
S 3.5 mph
(S 6 kph)
- 5SM
03:53
Clear
Fog And Mist
73°F / 23°C 70°F / 21°C 89% 29.95 in
(1014 mb)
S 3.5 mph
(S 6 kph)
- 5SM
02:53
Partly Cloudy
Fog And Mist
73°F / 23°C 70°F / 21°C 89% 29.95 in
(1014 mb)
SSE 4.6 mph
(SSE 7 kph)
- 6SM
01:53
Clear
Fog And Mist
73°F / 23°C 70°F / 21°C 89% 29.95 in
(1014 mb)
Calm - 6SM
00:53
Clear
75°F / 24°C 70°F / 21°C 83% 29.95 in
(1014 mb)
S 5.8 mph
(S 9 kph)
- 8SM
Time Weather Temperature Dewpoint Humidity Pressure Winds Precip Visibility


Weather for websites

WeatherForYou.com, LLC is not responsible for any damages or problems caused by this service. Current weather conditions are obtained from the closest station including government and personal stations which may have varying degrees of accuracy. Weather forecasts are derived from the NOAA NDFD. Like all things, this site belongs to Jesus Christ... He just trusts us to maintain it. If you have any questions or comments email webmaster@weatherforyou.com

Copyright © 2015, WeatherForYou.com LLC. All rights reserved.